Location: St. Louis
(38.6270°N, 90.1994°W)
Time: 08:17:20
(UTC-06:00)

A-11 Canister half - Visible Passes

Search period start: 09 December 2021 00:00
Search period end: 19 December 2021 00:00
Orbit: 1516 x 1684 km, 47.2° (Epoch: 08 December)

Date Brightness Start Highest point End Pass type
(mag) Time Alt. Az. Time Alt. Az. Time Alt. Az.
09 Dec 10.6 03:14:21 18° SSE 03:18:47 25° SE 03:26:05 10° ENE visible
09 Dec 9.1 05:13:08 10° SW 05:22:37 79° SE 05:32:30 10° ENE visible
10 Dec 10.5 02:54:06 22° SE 02:55:58 23° SE 03:02:55 10° E visible
10 Dec 9.1 04:52:25 19° SW 04:59:42 76° SE 05:09:31 10° ENE visible
11 Dec 10.6 02:33:35 21° ESE 02:33:35 21° ESE 02:39:43 10° E visible
11 Dec 9.1 04:31:51 33° SW 04:36:48 72° SE 04:46:32 10° ENE visible
11 Dec 9.2 06:32:43 10° W 06:42:11 59° NNW 06:52:01 10° ENE visible
12 Dec 10.9 02:12:49 17° ESE 02:12:49 17° ESE 02:16:28 10° E visible
12 Dec 9.1 04:11:04 49° SSW 04:13:53 69° SE 04:23:34 10° ENE visible
12 Dec 9.2 06:09:44 10° W 06:19:11 60° NNW 06:29:00 10° ENE visible
13 Dec 11.1 01:51:52 13° E 01:51:52 13° E 01:53:09 10° E visible
13 Dec 9.1 03:50:06 62° SSE 03:51:00 65° SE 04:00:35 10° ENE visible
13 Dec 9.1 05:48:22 16° W 05:56:11 62° NNW 06:06:01 10° ENE visible
14 Dec 9.3 03:29:01 59° ESE 03:29:01 59° ESE 03:37:36 10° ENE visible
14 Dec 9.1 05:27:15 26° W 05:33:12 63° NNW 05:43:01 10° ENE visible
15 Dec 9.7 03:07:48 46° E 03:07:48 46° E 03:14:37 10° ENE visible
15 Dec 9.0 05:06:02 37° W 05:10:13 65° NNW 05:20:02 10° ENE visible
16 Dec 10.1 02:46:30 34° E 02:46:30 34° E 02:51:38 10° ENE visible
16 Dec 9.0 04:44:43 51° W 04:47:15 67° NNW 04:57:02 10° ENE visible
17 Dec 10.5 02:25:07 25° ENE 02:25:07 25° ENE 02:28:38 10° ENE visible
17 Dec 8.9 04:23:19 65° NW 04:24:17 69° NNW 04:34:03 10° ENE visible
17 Dec 9.4 06:21:32 11° WNW 06:30:32 52° N 06:40:11 10° ENE visible
18 Dec 10.9 02:03:40 18° ENE 02:03:40 18° ENE 02:05:39 10° ENE visible
18 Dec 8.9 04:01:53 70° N 04:01:53 70° N 04:11:05 10° ENE visible
18 Dec 9.4 06:00:05 17° WNW 06:07:30 51° N 06:17:08 10° ENE visible
